TANAGER 4001

导读

TANAGER 4001(又名Tanager-1)是美国碳绘图者联盟主导的首颗温室气体监测卫星,于北京时间2024年8月16日由SpaceX猎鹰9号火箭从加利福尼亚州范登堡空军基地发射升空。卫星搭载NASA喷气推进实验室研发的先进成像光谱仪,可在全球范围精准监测甲烷、二氧化碳点源排放,定位“超级排放源”,相关数据将公开,助力气候变化应对决策,是公私合作应对气候变化的标杆项目。

Basic Information
目录编号:
60507
目录名称:
TANAGER-1 4001
国际标识:
2024-149AR
轨道中心:
EARTH
卫星名称:
TANAGER 4001
卫星全名:
TANAGER 4001
卫星状态:
在轨 (已飞行666 天)
发射日期:
2024-08-16 UTC
国别 :
美国 (US)
星等 :
--
Orbit Information
数据来源 国际轨道数据
星历时间: 2026-06-13T03:40:37+0800
7小时前
查看轨道信息
半长轴: 6809.728km
偏心率: 0.000329
轨道倾角: 97.265°
近地点辐角 322.586°
升交点赤经 258.071°
平近点角 37.516°
近地点: 429.35km
远地点: 433.832km
周期: 93.208分钟
每日圈数: 15.449276
Detailed Information
使用方式:
暂无
2D Orbit Map
3D Orbit Map
Orbit Altitude Analysis Chart
Orbit Inclination Analysis Chart
Orbit Comprehensive Analysis Chart
View Comprehensive Chart